Temperature
19 18 18 17 17 17 17 17 16 16 16 16 16 15 15 15 15 15 14 14 15 15 15 15 15 15 14 14 14 14 14 14 14 14 14 14 14 14 14 14 13 13 13
19 18 18 17 17 17 17 17 17 16 16 16 15 15 15 15 15 15 15 14 14 15 15 14 14 14 14 14 14 14 14 14 14 14 14 14 14 13 13 13 13 13 13
20 19 18 18 17 17 17 17 17 16 16 16 15 15 15 15 15 15 14 14 14 14 14 14 14 14 14 14 14 14 14 14 14 14 14 15 15 14 13 13 13 13 13
19 19 18 18 17 17 17 17 16 16 16 16 15 15 15 15 15 15 15 14 14 14 14 14 14 14 14 14 14 14 14 14 14 14 14 14 14 14 14 13 13 13 13
19 18 18 17 17 17 17 17 16 16 16 16 15 15 15 15 15 15 15 14 14 14 14 14 14 14 14 14 14 14 14 14 14 14 14 14 14 14 14 13 13 13 13
18 18 18 17 17 17 17 16 16 16 16 16 15 15 15 15 15 15 15 14 14 14 14 14 14 14 14 14 14 14 14 14 14 14 14 13 14 14 14 14 13 13 13
18 18 17 17 17 17 17 16 16 16 16 16 15 15 15 15 15 15 15 15 14 14 14 14 14 14 14 14 14 14 14 14 14 14 14 13 13 13 13 13 13 13 13
18 17 17 17 16 16 16 16 16 16 16 15 15 15 15 15 15 15 15 15 15 14 14 14 14 14 14 14 14 14 14 14 14 14 14 13 13 13 13 13 13 13 13
17 17 16 16 16 16 16 16 16 16 15 15 15 15 15 15 15 15 15 14 14 14 14 14 14 14 14 14 14 14 14 14 14 13 13 13 13 13 13 13 13 13 13
17 17 16 16 16 16 16 16 15 15 15 15 15 15 15 15 14 14 14 14 14 14 14 14 14 14 14 14 14 14 14 13 13 14 13 13 13 13 13 13 13 13 13
17 16 16 16 16 15 15 15 15 15 15 15 15 15 15 15 14 14 14 14 14 14 14 14 14 14 14 14 14 14 14 14 13 13 13 13 13 13 13 13 13 13 13
17 16 16 15 15 15 15 15 15 15 15 15 15 15 14 14 14 14 14 14 14 14 14 14 14 14 14 14 14 14 14 13 13 13 13 13 13 13 13 13 13 13 13
16 16 15 15 15 15 15 15 15 15 15 15 14 14 14 14 14 14 14 14 14 14 14 14 14 14 14 14 14 13 13 13 13 13 13 13 13 13 13 13 13 13 12
16 16 15 15 15 15 15 15 15 14 14 14 14 14 14 14 14 14 14 14 14 14 14 14 14 14 14 13 13 13 13 13 13 13 13 13 13 13 13 13 13 12 12
16 15 15 15 15 15 15 14 14 14 14 14 14 14 14 14 14 14 14 14 14 14 14 14 14 14 14 13 13 13 13 13 13 13 13 13 13 13 13 13 12 12 12
15 15 15 15 14 15 14 14 14 14 14 14 14 14 14 14 14 13 13 13 13 13 13 13 13 13 13 13 13 13 13 13 13 13 13 13 13 13 13 13 13 12 12
15 15 15 15 14 14 14 14 14 13 13 13 13 13 13 13 13 13 13 13 13 13 13 13 13 13 13 13 13 13 13 13 13 13 12 12 13 13 12 12 12 12 12
15 15 15 14 14 14 14 14 13 13 13 13 13 13 13 13 13 13 13 13 13 13 13 13 13 13 13 13 13 13 13 13 13 13 12 12 12 12 12 12 12 12 12
14 14 14 14 14 14 14 13 13 13 13 13 13 13 13 13 13 12 12 12 13 13 13 13 13 13 13 13 13 13 12 12 12 12 12 12 12 12 12 12 12 11 11
14 14 14 14 14 14 14 13 13 13 13 13 12 12 12 12 12 12 12 12 12 12 12 12 12 12 12 13 12 12 12 12 12 12 12 12 12 12 12 11 11 11 11
13 14 14 14 14 14 13 13 13 13 13 12 12 12 12 12 12 12 12 12 12 12 12 12 12 12 12 12 12 12 12 12 12 11 11 11 12 12 11 11 11 11 11
13 13 13 13 13 13 13 13 13 13 12 12 12 12 12 12 12 12 12 11 11 11 11 12 12 12 12 12 12 12 12 11 11 11 11 11 11 11 11 11 11 11 11
13 13 13 13 13 13 13 13 13 13 12 12 12 12 11 11 11 11 11 11 11 11 11 11 11 11 11 11 11 11 11 11 11 11 11 11 11 11 11 10 10 10 10
12 12 12 12 12 12 12 12 12 12 12 12 12 12 11 11 11 11 11 11 11 11 11 10 11 10 11 11 11 11 11 11 11 10 10 11 10 10 10 10 10 10 10
12 12 12 12 12 12 12 12 12 12 12 11 11 11 11 11 11 11 11 11 11 11 11 10 10 10 10 10 10 10 10 10 10 10 10 10 10 10 9 9 9 9 9
11 11 11 11 11 11 11 11 11 11 11 11 11 11 11 10 10 10 10 10 10 10 10 10 10 10 10 10 10 10 10 10 10 9 9 9 9 9 9 9 9 9 9
Wind_Speed
6 6 6 5 5 5 5 5 5 4 4 3 2 2 2 2 2 2 3 2 3 3 3 3 3 3 3 3 4 4 5 4 3 3 4 4 4 4 4 4 4 5 6
7 7 7 6 6 6 5 5 5 5 4 3 2 2 2 2 2 2 2 2 3 3 3 3 3 3 3 3 4 3 2 2 1 1 1 2 2 3 3 3 3 3 4
7 8 8 7 7 6 6 5 5 5 5 4 3 3 3 3 3 3 2 2 2 2 2 3 3 3 3 3 3 3 2 1 1 1 1 0 1 1 2 3 2 2 2
7 7 7 7 7 6 6 6 6 6 5 5 4 4 3 3 2 2 2 3 2 2 2 2 2 2 2 2 2 2 1 1 1 1 1 2 1 1 1 2 2 2 2
7 7 7 6 6 6 5 5 6 6 5 5 5 4 3 2 2 2 3 3 3 2 2 2 2 2 2 2 2 2 1 1 1 1 1 1 1 1 1 1 1 1 1
7 6 6 6 5 5 5 5 5 5 5 5 6 5 4 3 3 3 3 2 2 2 3 2 2 2 2 2 2 2 2 1 1 1 1 1 1 1 1 1 1 1 1
6 6 6 6 6 6 6 5 6 6 6 6 6 5 5 4 4 3 3 2 2 2 2 2 2 2 2 2 2 2 2 2 2 1 1 1 1 1 1 1 1 1 1
4 5 6 6 6 7 6 6 6 6 5 5 5 5 5 4 3 3 3 3 2 2 2 2 2 2 2 2 2 1 1 1 1 1 1 1 1 1 1 2 2 1 1
3 4 5 5 6 6 6 7 6 6 5 5 5 5 5 4 4 4 3 3 2 2 2 3 3 3 3 2 2 2 2 1 1 1 1 1 1 1 1 2 2 2 2
3 4 4 5 5 5 6 6 6 6 6 5 5 3 4 4 3 4 4 3 3 2 3 3 3 3 3 3 2 2 2 2 1 1 2 1 1 1 2 1 2 2 2
3 4 4 5 5 5 5 6 6 6 5 5 5 4 4 4 4 3 3 3 3 3 3 3 3 3 3 3 3 2 2 2 2 2 2 2 2 2 2 2 2 1 2
3 4 4 5 5 5 5 5 5 5 5 5 5 4 4 4 4 3 3 3 3 3 3 3 4 3 3 3 3 3 3 3 2 2 2 3 2 3 2 2 2 2 2
3 3 4 4 4 5 5 5 5 5 5 5 5 5 4 4 4 3 3 3 3 3 3 3 4 4 3 3 3 3 3 3 3 2 3 3 3 3 3 3 2 2 2
3 3 3 3 4 5 5 5 5 5 5 5 5 4 4 4 4 3 3 3 3 3 3 3 3 3 3 3 3 3 3 3 2 2 2 2 3 3 3 3 3 3 3
3 3 3 3 4 5 5 5 5 5 6 6 6 5 4 4 3 3 3 3 3 2 2 2 3 3 2 2 2 3 3 3 2 2 2 1 1 1 1 2 3 4 3
3 3 3 3 4 5 5 6 5 5 6 6 6 5 4 4 4 4 4 4 3 3 3 3 3 3 2 2 1 2 3 3 3 3 3 2 3 3 3 2 1 1 4
3 3 4 4 4 5 5 5 5 5 6 6 6 5 5 5 4 4 4 4 4 3 3 3 2 3 3 4 4 3 3 3 3 3 3 2 2 3 3 5 5 3 2
4 4 4 4 4 5 5 5 5 6 6 6 6 6 6 5 5 4 4 4 4 3 3 3 3 2 2 4 4 4 5 4 4 4 4 4 4 3 3 4 3 3 3
4 5 4 4 5 5 6 6 6 6 6 6 6 6 6 6 6 5 5 4 3 3 3 3 4 4 3 4 4 4 4 4 4 4 4 4 4 4 3 4 3 3 3
4 4 4 4 5 5 6 7 7 6 7 7 6 6 6 6 6 6 5 4 4 4 3 3 4 4 4 4 5 5 4 5 4 4 5 4 4 5 5 5 4 4 3
5 4 5 5 5 5 6 7 7 7 6 6 6 6 6 6 6 5 5 5 4 4 4 3 3 3 3 4 5 6 4 5 5 5 5 4 6 6 6 6 5 3 3
4 4 5 5 5 6 7 7 7 6 5 6 6 6 6 6 5 5 5 5 5 4 4 4 4 3 3 3 5 6 5 5 5 5 4 3 6 6 6 5 3 3 3
4 4 4 5 5 6 7 7 6 5 5 6 6 6 7 6 6 6 6 5 5 5 5 4 4 4 3 3 4 6 6 6 5 4 1 2 5 5 5 5 5 5 4
4 3 4 4 5 5 6 7 6 6 6 7 7 6 6 6 6 5 5 5 5 6 6 5 5 4 4 3 3 4 4 5 5 4 3 5 5 5 3 4 5 5 4
4 3 4 4 5 5 5 6 6 6 7 7 7 7 7 6 6 6 5 6 6 6 6 6 5 5 5 4 4 4 4 4 4 4 3 4 4 4 4 4 4 5 5
4 4 4 5 5 5 5 6 6 7 7 7 7 6 6 6 6 5 4 3 4 4 5 5 6 5 4 3 5 5 4 3 4 5 5 5 5 5 5 5 5 5 5
Wind_Direction
192 183 182 180 178 176 177 169 167 157 153 148 146 137 124 116 102 87 79 87 101 110 117 120 118 116 109 112 115 111 111 110 111 109 103 95 83 72 71 67 70 71 68
191 181 184 183 185 179 181 179 178 170 165 161 161 154 141 127 109 107 101 106 117 124 132 135 127 121 111 117 121 126 125 124 167 172 157 139 113 81 72 77 67 70 71
199 189 190 189 186 185 184 183 185 178 174 168 163 156 148 152 140 134 126 119 126 134 143 140 138 134 138 136 144 152 164 160 170 287 303 271 105 116 108 81 79 70 62
205 198 195 193 192 191 188 189 186 186 179 174 177 173 177 170 164 149 144 150 141 136 145 152 151 145 141 142 151 156 163 194 196 167 343 346 22 235 147 129 100 82 62
202 198 195 193 188 184 187 190 186 186 184 184 185 191 188 172 155 147 153 156 139 140 148 155 156 151 151 152 152 162 191 223 260 256 176 121 135 254 246 169 142 115 81
198 196 187 179 176 171 173 178 181 180 182 188 190 194 187 175 165 165 160 162 152 153 149 152 160 158 161 169 176 189 194 237 257 273 257 238 232 232 231 219 186 120 83
191 188 180 175 172 169 169 174 178 176 181 190 194 194 192 190 185 179 174 178 171 171 165 165 173 159 167 170 176 189 204 219 233 263 289 297 300 281 264 214 199 166 143
180 178 175 173 171 171 173 177 179 179 183 190 194 197 191 198 192 190 188 187 183 182 176 177 177 167 169 172 184 207 201 211 205 216 225 243 280 284 252 233 209 196 179
168 174 171 169 170 172 177 182 181 181 183 186 189 192 194 199 197 198 199 196 190 180 184 180 177 176 175 181 191 207 210 211 222 219 200 205 193 216 234 242 238 239 223
160 163 168 171 169 169 174 178 181 182 183 184 183 181 188 195 201 203 205 207 200 188 185 184 181 183 187 189 187 203 220 215 206 220 218 205 206 183 198 220 244 257 249
160 159 165 169 169 167 167 174 177 181 182 182 178 176 181 191 193 194 199 207 202 195 199 195 196 194 195 191 185 206 207 221 219 211 209 205 203 199 193 189 204 213 215
153 153 158 162 167 170 173 176 178 178 180 182 179 179 181 184 190 192 200 199 194 198 206 203 201 199 202 206 203 202 207 217 228 227 218 211 193 201 194 191 198 198 201
154 158 162 169 170 175 178 177 177 178 177 179 184 181 184 190 194 197 200 202 196 197 204 202 201 206 210 212 214 213 213 217 227 228 226 214 198 197 189 197 198 192 180
178 171 171 177 180 184 184 181 177 177 179 180 185 190 193 196 201 198 196 196 192 200 209 205 201 205 208 211 208 213 216 221 220 214 217 214 202 209 199 199 201 189 178
198 196 190 186 186 187 186 183 179 180 182 182 187 194 195 191 193 191 194 192 186 198 200 203 204 200 205 211 219 210 213 219 217 211 213 202 154 61 192 202 196 188 189
218 210 209 203 201 191 187 185 185 188 189 189 192 191 192 187 190 193 192 187 187 191 180 196 197 190 187 134 170 233 215 217 221 223 215 192 176 160 153 125 125 201 201
230 223 220 214 213 204 192 186 189 189 195 194 190 189 192 191 191 187 186 189 191 186 182 191 196 199 171 150 173 212 224 230 233 228 215 203 189 192 187 168 171 177 218
245 244 236 224 217 206 193 188 188 193 197 195 191 189 191 193 191 187 190 197 201 195 196 198 194 203 181 159 180 207 222 226 230 227 221 208 195 185 192 181 181 191 193
264 254 242 231 217 207 195 190 192 198 201 199 199 196 193 194 194 194 197 201 204 203 205 204 205 208 200 171 177 208 221 225 226 226 222 219 207 153 186 200 197 202 195
277 263 240 228 216 207 196 196 199 202 206 207 208 203 199 199 200 202 203 203 205 212 213 211 220 221 219 177 182 212 221 226 226 226 221 209 216 177 191 210 212 218 214
280 264 237 224 218 201 197 205 206 210 213 209 208 206 203 205 205 205 204 204 208 211 216 219 223 227 227 190 189 209 226 230 231 229 225 213 183 197 207 232 231 218 229
280 266 239 226 214 203 203 208 211 212 208 207 206 208 207 207 205 204 207 208 209 213 220 226 226 228 223 218 202 203 225 248 237 236 233 202 165 187 202 219 205 185 213
280 274 247 232 221 211 209 211 214 206 200 202 206 209 209 208 205 204 206 209 211 222 231 232 233 232 230 216 198 208 217 228 238 239 212 167 171 189 204 200 194 198 215
283 281 265 240 230 218 215 218 212 202 202 206 209 213 213 213 210 206 208 214 218 224 230 236 239 236 232 231 220 219 217 215 225 230 192 180 186 207 215 194 200 215 219
280 275 266 254 243 232 225 222 213 207 210 212 211 213 213 213 215 212 213 218 222 226 228 233 237 235 237 236 232 229 228 226 221 214 216 213 206 210 212 216 216 215 213
279 275 272 263 249 237 235 227 216 212 213 215 213 212 211 212 214 215 218 217 226 219 231 246 249 246 254 221 211 222 223 209 192 201 216 219 220 223 225 223 221 219 221
Height
1536 1537 1538 1540 1541 1542 1543 1544 1545 1546 1546 1547 1547 1548 1548 1548 1548 1548 1548 1548 1548 1549 1549 1549 1549 1549 1550 1549 1550 1550 1550 1550 1550 1550 1550 1550 1550 1550 1549 1549 1549 1549 1548
1533 1535 1537 1538 1540 1541 1542 1543 1544 1545 1546 1546 1547 1548 1548 1549 1549 1548 1548 1549 1549 1549 1549 1550 1550 1550 1550 1550 1550 1550 1551 1551 1551 1551 1551 1551 1552 1551 1550 1550 1550 1550 1549
1531 1533 1535 1537 1538 1539 1541 1542 1543 1545 1545 1546 1547 1547 1548 1548 1549 1549 1549 1549 1549 1550 1550 1550 1551 1551 1551 1551 1550 1551 1551 1551 1551 1551 1552 1551 1551 1552 1552 1550 1550 1550 1549
1529 1531 1533 1535 1536 1538 1539 1541 1542 1543 1544 1545 1546 1547 1548 1549 1549 1549 1549 1550 1550 1550 1550 1551 1551 1551 1551 1551 1551 1551 1551 1551 1551 1551 1551 1551 1551 1551 1551 1551 1550 1550 1549
1527 1529 1531 1532 1534 1536 1537 1539 1541 1542 1543 1544 1545 1547 1548 1548 1549 1549 1550 1550 1550 1550 1550 1551 1551 1551 1551 1551 1551 1551 1551 1551 1551 1551 1551 1550 1550 1550 1551 1551 1551 1550 1550
1525 1527 1529 1530 1532 1534 1535 1537 1539 1540 1542 1543 1544 1546 1547 1548 1548 1549 1550 1550 1550 1550 1551 1551 1551 1551 1551 1551 1551 1551 1551 1551 1551 1551 1550 1550 1550 1550 1550 1550 1550 1550 1550
1523 1524 1526 1528 1530 1531 1533 1535 1537 1539 1540 1542 1543 1545 1546 1547 1548 1549 1549 1550 1550 1550 1550 1550 1550 1550 1551 1551 1551 1551 1551 1550 1550 1550 1550 1550 1550 1550 1550 1549 1549 1549 1549
1521 1523 1524 1526 1528 1529 1531 1533 1535 1537 1538 1540 1542 1543 1544 1546 1547 1548 1549 1549 1549 1550 1550 1550 1550 1550 1550 1550 1550 1550 1550 1550 1550 1549 1549 1549 1549 1549 1549 1549 1549 1549 1549
1520 1521 1523 1524 1526 1528 1529 1531 1533 1535 1537 1538 1540 1541 1543 1544 1545 1546 1547 1548 1549 1549 1549 1549 1549 1549 1549 1549 1549 1549 1549 1549 1549 1549 1548 1548 1548 1548 1548 1548 1548 1549 1549
1520 1521 1522 1523 1524 1526 1528 1530 1532 1534 1535 1537 1538 1539 1541 1542 1543 1545 1546 1547 1547 1548 1548 1548 1548 1548 1548 1548 1548 1548 1548 1548 1548 1548 1548 1547 1547 1547 1547 1547 1547 1548 1548
1519 1520 1521 1522 1523 1525 1526 1528 1530 1532 1533 1535 1537 1538 1539 1540 1541 1543 1544 1545 1546 1546 1547 1547 1548 1548 1548 1548 1547 1547 1547 1547 1547 1547 1547 1546 1546 1546 1546 1546 1546 1546 1547
1518 1519 1520 1521 1522 1523 1525 1526 1528 1530 1531 1533 1535 1536 1537 1538 1540 1541 1542 1543 1544 1545 1545 1546 1546 1547 1546 1547 1547 1546 1546 1546 1546 1546 1546 1546 1545 1545 1545 1545 1545 1545 1545
1517 1518 1519 1520 1521 1522 1523 1525 1526 1528 1529 1531 1533 1534 1536 1537 1538 1539 1540 1541 1542 1543 1543 1544 1545 1545 1545 1545 1545 1545 1545 1545 1545 1544 1544 1544 1544 1544 1544 1544 1544 1544 1544
1516 1517 1518 1519 1519 1520 1522 1523 1524 1526 1527 1529 1530 1532 1533 1534 1536 1537 1538 1539 1540 1541 1541 1542 1542 1543 1543 1543 1543 1543 1543 1543 1543 1543 1543 1543 1543 1543 1543 1543 1543 1543 1543
1514 1515 1516 1517 1518 1519 1520 1521 1522 1523 1525 1526 1528 1529 1531 1532 1533 1534 1535 1536 1537 1538 1539 1540 1540 1541 1541 1541 1541 1542 1541 1541 1541 1541 1541 1541 1541 1541 1541 1541 1541 1541 1541
1512 1513 1514 1515 1516 1517 1518 1519 1520 1521 1523 1524 1525 1527 1529 1530 1531 1532 1533 1534 1535 1536 1537 1537 1538 1538 1538 1539 1539 1539 1540 1540 1540 1539 1539 1539 1539 1539 1539 1539 1539 1540 1540
1510 1511 1512 1513 1514 1515 1516 1517 1518 1519 1520 1522 1523 1524 1526 1527 1528 1530 1531 1532 1533 1534 1534 1535 1535 1536 1536 1536 1537 1537 1537 1537 1538 1538 1538 1537 1537 1537 1538 1538 1538 1538 1538
1508 1509 1510 1511 1512 1513 1514 1515 1516 1517 1518 1519 1520 1522 1523 1524 1526 1527 1528 1529 1530 1531 1532 1532 1533 1533 1534 1534 1534 1535 1535 1535 1535 1535 1535 1535 1535 1535 1536 1536 1536 1536 1535
1506 1507 1508 1508 1509 1510 1511 1512 1513 1514 1515 1516 1517 1519 1520 1521 1523 1524 1525 1526 1528 1528 1529 1529 1530 1530 1531 1531 1532 1532 1532 1533 1532 1533 1533 1533 1533 1533 1533 1534 1533 1533 1533
1504 1504 1505 1505 1506 1507 1508 1510 1511 1511 1512 1513 1515 1516 1517 1518 1520 1521 1522 1524 1525 1525 1526 1526 1527 1527 1528 1528 1529 1529 1529 1530 1530 1530 1530 1530 1530 1530 1530 1531 1531 1531 1531
1500 1501 1501 1502 1503 1504 1505 1506 1508 1508 1509 1511 1512 1513 1514 1515 1517 1518 1519 1521 1522 1522 1523 1523 1524 1524 1524 1524 1525 1525 1526 1526 1527 1527 1527 1527 1527 1527 1527 1528 1528 1528 1528
1497 1497 1497 1498 1499 1500 1501 1503 1504 1505 1506 1507 1509 1509 1511 1512 1513 1514 1516 1517 1518 1519 1519 1520 1520 1520 1521 1521 1521 1521 1522 1523 1523 1523 1524 1523 1523 1524 1524 1524 1524 1525 1525
1494 1494 1494 1494 1495 1496 1498 1499 1501 1502 1503 1504 1505 1506 1508 1509 1509 1510 1512 1513 1514 1515 1516 1516 1516 1516 1517 1517 1517 1517 1518 1518 1519 1519 1519 1520 1520 1520 1520 1520 1521 1521 1521
1491 1490 1490 1491 1492 1492 1494 1496 1497 1498 1499 1500 1501 1502 1504 1504 1505 1506 1507 1508 1510 1511 1512 1512 1512 1512 1512 1513 1513 1513 1513 1514 1515 1515 1515 1516 1516 1516 1516 1516 1517 1517 1517
1487 1487 1487 1487 1488 1489 1490 1491 1493 1494 1495 1496 1497 1498 1499 1500 1501 1502 1503 1504 1505 1507 1507 1507 1508 1508 1508 1509 1509 1509 1509 1510 1510 1510 1511 1511 1512 1512 1512 1512 1512 1513 1513
1484 1484 1484 1484 1485 1485 1486 1487 1488 1490 1491 1492 1493 1494 1495 1496 1497 1498 1499 1500 1501 1502 1502 1503 1503 1503 1504 1504 1505 1505 1506 1506 1506 1506 1506 1506 1507 1507 1508 1508 1508 1508 1509